Simultaneous Nadir Overpasses (SNOs) Predictions

Prediction of SNOs between FY3D and TERRA Satellite Orbit:

Table of predicted SNOs for the next 14.0 days since TLE Epoch: 12/5/2020
Index Date (FY3D) Time (FY3D) Lat,Lon (FY3D) SZA (FY3D ) Date (TERRA) Time (TERRA) Lat,Lon (TERRA) SZA (TERRA ) Distance(km) Time Diff (sec)
1 12/06/2020 13:13:40 69.16, -18.93 91.64 12/06/2020 13:14:17 69.15, -18.96 91.63 1.55 37
2 12/06/2020 14:04:21 -69.02, 148.58 88.50 12/06/2020 14:03:47 -69.04, 148.53 88.49 2.83 34
3 12/09/2020 05:30:02 69.19, 96.95 91.94 12/09/2020 05:30:44 69.18, 96.96 91.93 1.38 42
4 12/09/2020 06:20:43 -69.05, -95.53 88.20 12/09/2020 06:20:14 -69.07, -95.55 88.18 2.33 29
5 12/11/2020 21:46:24 69.22,-147.16 92.19 12/11/2020 21:47:11 69.19,-147.13 92.17 2.80 47
6 12/11/2020 22:37:05 -69.07, 20.35 87.95 12/11/2020 22:36:41 -69.09, 20.36 87.94 1.37 24
7 12/11/2020 23:27:31 68.04,-170.96 91.03 12/11/2020 23:26:24 68.08,-173.23 91.05 94.55 67
8 12/14/2020 14:02:44 69.19, -31.21 92.34 12/14/2020 14:03:37 69.20, -31.23 92.35 1.62 53
9 12/14/2020 14:53:26 -69.11, 136.24 87.75 12/14/2020 14:53:07 -69.10, 136.26 87.76 1.25 19
10 12/14/2020 15:43:55 68.23, -55.28 91.38 12/14/2020 15:42:47 68.26, -57.13 91.40 76.53 68
11 12/17/2020 06:19:06 69.23, 84.67 92.49 12/17/2020 06:20:04 69.21, 84.65 92.47 2.14 58
12 12/17/2020 07:09:47 -69.09,-107.81 87.66 12/17/2020 07:09:34 -69.11,-107.84 87.64 2.59 13
13 12/17/2020 08:00:20 68.42, 60.39 91.69 12/17/2020 07:59:10 68.49, 59.02 91.74 56.31 70



Historial Predications of SNOs between FY3D and TERRA
